Regional Weather Roundup
Issued by NWS

Home | Current Version | Previous Version | Graphics & Text | Print | Product List | Glossary On
Versions: 1 2 3 4 5 6 7 8 9 10 11 12 13 14 15 16 17 18 19 20 21 22 23 24 25 26 27 28 29 30 31 32 33 34 35 36 37 38 39 40 41 42 43 44 45 46 47 48 49 50
000
ASUS43 KLSX 251357
RWRMO

WEATHER SUMMARY FOR MISSOURI
NATIONAL WEATHER SERVICE SPRINGFIELD MO
900 AM CDT SUN SEP 25 2016

NOTE: "FAIR" INDICATES FEW OR NO CLOUDS BELOW 12,000 FEET WITH NO
       SIGNIFICANT WEATHER AND/OR OBSTRUCTIONS TO VISIBILITY.
       CURRENT SKY AND/OR WEATHER CONDITIONS ARE NOT AVAILABLE FOR
       CHILLICOTHE AND FARMINGTON.

MOZ001>031-035>038-043-044-053-054-251500-
...NORTHERN AND WESTERN MISSOURI...

CITY           SKY/WX    TMP DP  RH WIND       PRES   REMARKS
KANSAS CTY INT DRIZZLE   68  65  90 W8        30.10R
LEE`S SUMMIT   RAIN      66  66 100 W7        30.10F FOG
ST JOSEPH      LGT RAIN  66  64  93 N13       30.10R
CHILLICOTHE      N/A     72  67  84 SW6       30.07R

$$
MOZ066>068-077>081-088>096-101>105-251500-
...SOUTHWEST MISSOURI...

CITY           SKY/WX    TMP DP  RH WIND       PRES   REMARKS
SPRINGFIELD    MOSUNNY   75  67  76 SE5       30.09S

$$
MOZ032>034-039>042-045>050-055>058-069>072-251500-
...CENTRAL MISSOURI...

CITY           SKY/WX    TMP DP  RH WIND       PRES   REMARKS
COLUMBIA       NOT AVBL
JEFFERSON CITY SUNNY     73  69  87 CALM      30.06R
ROLLA          MOSUNNY   72  67  84 S8        30.09R
SEDALIA        PTSUNNY   75  67  76 W7        30.09R

$$
MOZ051-052-059>065-251500-
...EAST CENTRAL MISSOURI...

CITY           SKY/WX    TMP DP  RH WIND       PRES   REMARKS
ST LOUIS INTL  NOT AVBL

$$
MOZ072>076-082>087-097>100-106>115-251500-
...SOUTH CENTRAL AND SOUTHEAST MISSOURI...

CITY           SKY/WX    TMP DP  RH WIND       PRES   REMARKS
CAPE GIRARDEAU SUNNY     76  70  82 CALM      30.08R
WEST PLAINS    MOSUNNY   75  68  78 CALM      30.13R

$$


USA.gov is the U.S. government's official web portal to all federal, state and local government web resources and services.